Flag for U.S.A. Weather past 2 weeks in Roanoke, Virginia, U.S.A.

Now
46 °F

Passing clouds.


Feels Like: 44 °F
Forecast: 44 / 68 °F
Wind: 5 mph from West

Location: Roanoke Regional Airport

Current Time: Oct 24, 2014 at 7:43:56 AM

Latest Report: Oct 24, 2014 at 6:54 AM


Visibility: 10 mi

Pressure: 30.10 "Hg

Humidity: 77%

Dew point: 39 °F

Location of RoanokeLocation

Historic Weather in Roanoke — Graph

°F

Roanoke temperature yesterday

Maximum temperature yesterday: 62 °F (at 3:54 PM)
Minimum temperature yesterday: 48 °F (at 3:54 AM)
Average temperature yesterday: 53 °F

Past Weeks' High & Low Weather Summary

 TemperatureHumidityPressure
High78 °F (Oct 9, 3:54 PM)100% (Oct 11, 2:54 AM)30.29 "Hg (Oct 11, 2:54 AM)
Low39 °F (Oct 20, 7:54 AM)32% (Oct 9, 3:54 PM)29.73 "Hg (Oct 18, 4:54 AM)
Average58 °F73%30.01 "Hg
* Reported Oct 9 6:54 AM — Oct 24 6:54 AM, Roanoke, Weather by CustomWeather, © 2014

Note: Actual official high and low records may vary slightly from our data, if they occured in-between our weather recording intervals... More about our weather records

Advertising

Roanoke weather history for previous 24 hours

 ConditionsComfort  
Time TempWeatherWind HumidityBarometerVisibility
6:54 AM
Oct 24
46 °FPassing clouds.5 mph77%30.10 "Hg10 mi
5:54 AM46 °FClear.7 mph77%30.08 "Hg10 mi
4:54 AM47 °FClear.10 mph74%30.07 "Hg10 mi
3:54 AM45 °FClear.9 mph80%30.07 "Hg10 mi
2:54 AM43 °FClear.8 mph82%30.06 "Hg10 mi
1:54 AM45 °FClear.7 mph76%30.07 "Hg10 mi
12:54 AM48 °FClear.3 mph71%30.09 "Hg10 mi
11:54 PM
Oct 23
50 °FClear.3 mph66%30.09 "Hg10 mi
10:54 PM50 °FClear.7 mph63%30.09 "Hg10 mi
9:54 PM51 °FClear.9 mph63%30.09 "Hg10 mi
8:54 PM50 °FClear.12 mph66%30.08 "Hg10 mi
7:54 PM52 °FClear.3 mph61%30.06 "Hg10 mi
6:54 PM52 °FPassing clouds.7 mph64%30.04 "Hg10 mi
5:54 PM56 °FPassing clouds.15 mph55%30.03 "Hg10 mi
4:54 PM60 °FPassing clouds.18 mph47%30.01 "Hg10 mi
3:54 PM62 °FSunny.13 mph44%30.01 "Hg10 mi
2:54 PM61 °FPassing clouds.16 mph44%30.00 "Hg10 mi
1:54 PM61 °FPassing clouds.16 mph46%30.03 "Hg10 mi
12:54 PM60 °FPassing clouds.13 mph46%30.07 "Hg10 mi
11:54 AM58 °FPassing clouds.14 mph51%30.09 "Hg10 mi
10:54 AM56 °FPassing clouds.8 mph51%30.09 "Hg10 mi
9:54 AM54 °FPassing clouds.18 mph55%30.08 "Hg10 mi
8:54 AM51 °FScattered clouds.18 mph61%30.09 "Hg10 mi
7:54 AM48 °FPassing clouds.22 mph66%30.07 "Hg10 mi
Weather by CustomWeather, © 2014

See weather overviewHow to use our weather pages